Regional Weather Roundup
Issued by NWS

Home | Current Version | Previous Version | Graphics & Text | Print | Product List | Glossary On
Versions: 1 2 3 4 5 6 7 8 9 10 11 12 13 14 15 16 17 18 19 20 21 22 23 24 25 26 27 28 29 30 31 32 33 34 35 36 37 38 39 40 41 42 43 44 45 46 47 48 49 50
000
ASUS43 KIND 072209
RWRIN

WEATHER ROUNDUP FOR INDIANA
NATIONAL WEATHER SERVICE INDIANAPOLIS IN
500 PM EST WED DEC 07 2016

NOTE: "FAIR" INDICATES FEW OR NO CLOUDS BELOW 12,000 FEET WITH NO
SIGNIFICANT WEATHER AND/OR OBSTRUCTIONS TO VISIBILITY.

* - STATION DOES NOT REPORT WEATHER SUCH AS PRECIPITATION OR FOG.

+ - STATION NOT QUALITY CONTROLLED BY THE NATIONAL WEATHER SERVICE.
    USE DATA WITH CAUTION...ESPECIALLY DEWPOINT AND RELATIVE
    HUMIDITY OBSERVATIONS.

INZ001>003-010>013-019-020-072300-
NORTHWEST INDIANA

CITY           SKY/WX    TMP DP  RH WIND       PRES   REMARKS
GARY /AIRPORT/ CLOUDY    30  21  69 W15G29    30.12R WCI  19
KNOX *+        CLOUDY    30   7  37 W16       30.12R WCI  19
LA PORTE +     CLOUDY    29  21  74 SW10      30.10S WCI  19
MICHIGAN CITY+ CLOUDY    30  21  69 SW13G18   30.10S WCI  20
MONTICELLO +   CLEAR     32  21  64 W9        30.14R WCI  24
RENSSELAER +     N/A     32  27  80 W15G22    30.14S WCI  22
VALPARAISO     MOCLDY    30  21  69 W17       30.11R WCI  18

$$

LMZ046-743>745-072300-
SOUTHERN LAKE MICHIGAN

STATION/POSITION TIME  TEMP    WIND        PRES    WAVE
                       AIR SEA DIR/SP/G            HT
                 (UTC) (F)     (DEG/KT/KT) (MB)    (FT)
BURNS HARBOR     2140   31     240/ 14/ 20 1019.6S
MICHIGAN CITY    2140   30     190/ 16/ 18   N/A

$$

INZ004-005-014>016-021>024-072300-
NORTH CENTRAL INDIANA

CITY           SKY/WX    TMP DP  RH WIND       PRES   REMARKS
ELKHART        CLOUDY    30  19  64 W13       30.08R WCI  20
GOSHEN         CLOUDY    32  21  64 W9        30.07R WCI  24
LOGANSPORT +   CLEAR     32  23  69 W17       30.14R WCI  21
PERU/GRISSOM   PTCLDY    31  23  72 W13       30.10R WCI  22
ROCHESTER +    PTCLDY    34  28  80 W13       30.12R WCI  25
SOUTH BEND     CLOUDY    29  21  72 SW14      30.09R WCI  18
WARSAW +       MOCLDY    32  21  64 W10       30.09S WCI  24

$$

INZ006>009-017-018-025>027-072300-
NORTHEAST INDIANA

CITY           SKY/WX    TMP DP  RH WIND       PRES   REMARKS
ANGOLA *+      CLEAR     32  25  74 W9        30.05R WCI  24
AUBURN +       CLOUDY    32  23  69 W8        30.08R WCI  25
FORT WAYNE     CLOUDY    33  24  69 W10       30.10R WCI  25
HUNTINGTON +   MOCLDY    32  22  66 W13G20    30.11R WCI  22
KENDALLVILLE + CLOUDY    31  23  72 W10       30.06R WCI  23

$$

INZ028-029-035-036-043>045-051>053-072300-
WEST CENTRAL INDIANA

CITY           SKY/WX    TMP DP  RH WIND       PRES   REMARKS
CRAWFORDSVL +  CLOUDY    31  23  73 W9        30.16R WCI  23
GREENCASTLE +  CLOUDY    32  25  74 W9        30.16S WCI  24
LAFAYETTE      PTCLDY    31  23  72 W12       30.15R WCI  22
TERRE HAUTE    CLOUDY    35  22  58 W8        30.19R WCI  29

$$

INZ030>032-037>040-046>048-054>057-064-065-072300-
CENTRAL INDIANA

CITY           SKY/WX    TMP DP  RH WIND       PRES   REMARKS
CP ATTERBURY + CLOUDY    36  23  60 W6        30.16R
COLUMBUS       CLOUDY    36  25  64 SW6       30.16R
FRANKFORT +    CLOUDY    35  26  71 W13       30.15S WCI  26
GREENWOOD *+   CLOUDY    37  23  58 W7        30.14S
INDIANAPOLIS   CLOUDY    35  20  54 W15       30.14R WCI  25
-EAGLE CREEK   CLOUDY    36  21  54 W13       30.14R
KOKOMO +       MOCLDY    33  23  66 W10       30.13R WCI  25
MARION +       PTCLDY    32  25  74 W10       30.12S HAZE    WCI  24
MT COMFORT *+  CLOUDY    34  25  69 W9        30.13S WCI  26
SHELBYVILLE    CLOUDY    37  24  59 W7        30.13S
ZIONSVILLE +   PTCLDY    32  24  71 W10G18    30.14R WCI  24

$$

INZ033-034-041-042-049-050-058-059-072300-
EAST CENTRAL INDIANA

CITY           SKY/WX    TMP DP  RH WIND       PRES   REMARKS
MUNCIE         CLOUDY    35  22  58 W6        30.11S WCI  30

$$

INZ060-061-067>069-081>083-085>088-072300-
SOUTHWEST INDIANA

CITY           SKY/WX    TMP DP  RH WIND       PRES   REMARKS
EVANSVILLE     PTCLDY    38  22  52 NW8       30.20S
HUNTINGBURG *+ MOCLDY    37  24  59 N9        30.19S
WASHINGTON +   CLOUDY    36  26  68 W7        30.20S

$$

INZ062-063-066-070>080-084-089>092-072300-
SOUTH CENTRAL AND SOUTHEAST INDIANA

CITY           SKY/WX    TMP DP  RH WIND       PRES   REMARKS
BLOOMINGTON    CLOUDY    35  23  61 W9        30.16R WCI  28
MADISON *+     CLOUDY    37  23  56 W3        30.17R
NORTH VERNON + CLOUDY    37  30  75 SW6       30.16R
SEYMOUR +      CLOUDY    37  25  60 W5        30.16R

$$





USA.gov is the U.S. government's official web portal to all federal, state and local government web resources and services.